Location: Saratoga Springs
(43.0831°N, 73.7850°W)
Time: 09:31:44
(UTC-04:00)

Transit 2A Rocket - Pass Details

Date: 21 April 2024
Orbit: 584 x 909 km, 66.7° (Epoch: 25 May)

Event Time Altitude Azimuth Distance (km) Brightness Sun altitude
Rises 20:29:29 0° 331° (NNW) 3,300 9.3 -8.3°
Reaches altitude 10° 20:31:53 10° 336° (NNW) 2,414 8.4 -8.7°
Maximum altitude 20:37:25 58° 55° (NE) 1,005 5.5 -9.6°
Enters shadow 20:42:51 12° 133° (SE) 2,399 6.9 -10.5°
